EW9394 Weather Reports


Display with metric or nautical units.
time (UTC)temp
F
wind
direction
speed
MPH
gust
MPH
rain 1hr
in
rain 24hr
in
rain mn
in
humidity
%
barometer
mb
20260509052958 71 235 0.0 1.0 0.00 0.00 0.00 88 1012.7
20260509052456 71 246 0.0 1.0 0.00 0.00 0.00 88 1012.8
20260509051954 71 267 1.0 1.0 0.00 0.00 0.00 88 1012.8
20260509051451 71 245 2.0 2.0 0.00 0.00 0.00 87 1012.4
20260509050948 71 191 0.0 0.0 0.00 0.00 0.00 87 1011.9
20260509050445 71 187 1.0 1.0 0.00 0.00 0.00 87 1011.7
20260509045941 71 177 2.0 2.0 0.00 0.01 0.01 86 1011.5
20260509045439 72 205 0.0 0.0 0.00 0.01 0.01 86 1011.4
20260509044935 72 193 1.0 1.0 0.00 0.01 0.01 85 1011.2
20260509044434 72 173 3.0 3.0 0.00 0.01 0.01 85 1011.0
20260509043931 72 189 1.0 1.0 0.00 0.01 0.01 85 1011.3
20260509043426 72 199 1.0 1.0 0.00 0.01 0.01 84 1011.3
20260509042921 72 182 0.0 1.0 0.00 0.01 0.01 84 1011.3
20260509042419 72 193 1.0 1.0 0.00 0.01 0.01 83 1010.9
20260509041915 72 211 4.0 5.0 0.00 0.01 0.01 83 1011.3
20260509041412 73 164 1.0 1.0 0.00 0.01 0.01 82 1011.6
20260509040910 73 137 2.0 2.0 0.00 0.01 0.01 81 1011.9
20260509040408 72 186 1.0 1.0 0.00 0.01 0.01 82 1012.2
20260509035905 72 213 0.0 0.0 0.00 0.01 0.01 82 1012.3
20260509035402 72 212 0.0 0.0 0.00 0.01 0.01 82 1012.3
20260509034858 72 206 0.0 0.0 0.00 0.01 0.01 82 1012.0
20260509034355 72 202 1.0 1.0 0.00 0.01 0.01 82 1012.3
20260509033852 72 198 0.0 0.0 0.00 0.01 0.01 82 1012.0
20260509033350 72 198 0.0 0.0 0.00 0.01 0.01 82 1011.9
20260509032846 72 205 0.0 0.0 0.00 0.01 0.01 82 1011.6
20260509032343 72 204 0.0 0.0 0.00 0.01 0.01 82 1011.4
20260509031842 72 200 1.0 2.0 0.00 0.01 0.01 82 1011.4
20260509031338 72 187 1.0 1.0 0.00 0.01 0.01 82 1011.4
20260509030836 72 174 1.0 1.0 0.00 0.01 0.01 82 1011.6
20260509030334 72 186 0.0 0.0 0.00 0.01 0.01 82 1011.6
20260509025831 72 182 0.0 1.0 0.00 0.01 0.01 82 1011.3
20260509025326 72 154 1.0 1.0 0.00 0.01 0.01 82 1011.2
20260509024821 72 187 0.0 1.0 0.00 0.01 0.01 82 1011.0
20260509024318 72 201 1.0 1.0 0.00 0.01 0.01 82 1010.7
20260509023815 72 145 2.0 2.0 0.00 0.01 0.01 82 1010.8
20260509023312 72 177 0.0 0.0 0.00 0.01 0.01 82 1010.8
20260509022809 72 176 0.0 1.0 0.00 0.01 0.01 81 1010.7
20260509022307 73 189 2.0 2.0 0.00 0.01 0.01 81 1010.6
20260509021803 73 178 2.0 2.0 0.00 0.01 0.01 80 1010.5
20260509021300 73 182 1.0 1.0 0.00 0.01 0.01 81 1010.6
20260509020757 73 182 0.0 0.0 0.00 0.01 0.01 81 1010.4
20260509020255 73 197 1.0 1.0 0.00 0.01 0.01 81 1010.5
20260509015753 73 191 0.0 0.0 0.00 0.01 0.01 80 1010.5
20260509015251 73 189 5.0 7.0 0.00 0.01 0.01 80 1010.6
20260509014747 73 180 2.0 5.0 0.00 0.01 0.01 80 1010.5
20260509014244 73 195 3.0 3.0 0.00 0.01 0.01 80 1010.4
20260509013741 73 183 2.0 2.0 0.00 0.01 0.01 80 1010.6
20260509013236 73 198 1.0 1.0 0.00 0.01 0.01 80 1010.3
20260509012733 73 192 1.0 2.0 0.00 0.01 0.01 80 1010.2
20260509012230 73 188 1.0 2.0 0.00 0.01 0.01 79 1010.3
20260509011727 73 197 1.0 1.0 0.00 0.01 0.01 79 1010.1
20260509011225 73 185 1.0 1.0 0.00 0.01 0.01 79 1010.0
20260509010723 73 193 2.0 3.0 0.00 0.01 0.01 79 1009.9
20260509010219 73 185 2.0 2.0 0.00 0.01 0.01 79 1009.9
20260509005716 73 192 1.0 2.0 0.00 0.01 0.01 78 1009.8
20260509005214 73 185 3.0 5.0 0.00 0.01 0.01 78 1009.9
20260509004713 73 187 1.0 1.0 0.00 0.01 0.01 78 1010.0
20260509004212 73 182 1.0 1.0 0.00 0.01 0.01 77 1010.0
20260509003709 73 200 0.0 1.0 0.00 0.01 0.01 77 1009.6
20260509003207 74 193 1.0 1.0 0.00 0.01 0.01 76 1009.6
20260509002704 74 180 1.0 3.0 0.00 0.01 0.01 76 1009.6
20260509002201 74 189 1.0 1.0 0.00 0.01 0.01 76 1009.7
20260509001659 74 137 2.0 2.0 0.00 0.01 0.01 75 1009.7
20260509001155 74 181 0.0 0.0 0.00 0.01 0.01 75 1010.0
20260509000653 75 214 3.0 3.0 0.00 0.01 0.01 74 1009.7
20260509000149 75 134 2.0 3.0 0.00 0.01 0.01 73 1009.9
20260508235647 75 175 2.0 2.0 0.00 0.01 0.01 73 1010.1
20260508235143 75 178 1.0 1.0 0.00 0.01 0.01 74 1010.1
20260508234641 74 192 1.0 1.0 0.00 0.01 0.01 74 1010.2
20260508234137 75 192 1.0 1.0 0.00 0.01 0.01 73 1010.0
20260508233636 75 151 2.0 2.0 0.00 0.01 0.01 72 1010.2
20260508233134 75 183 3.0 3.0 0.00 0.01 0.01 72 1010.2
20260508232631 75 159 2.0 3.0 0.00 0.01 0.01 72 1010.4
20260508232128 75 171 4.0 5.0 0.00 0.01 0.01 72 1010.2
20260508231625 76 175 3.0 5.0 0.00 0.01 0.01 71 1010.2
20260508231122 76 131 2.0 2.0 0.00 0.01 0.01 71 1010.1
20260508230618 75 176 4.0 6.0 0.00 0.01 0.01 71 1010.4
20260508230115 75 203 1.0 5.0 0.00 0.01 0.01 72 1010.4
20260508225613 75 186 3.0 6.0 0.00 0.01 0.01 72 1010.4
20260508225109 75 178 2.0 3.0 0.00 0.01 0.01 72 1010.4
20260508224607 75 161 3.0 5.0 0.00 0.01 0.01 72 1010.4
20260508224104 75 197 3.0 7.0 0.00 0.01 0.01 72 1010.1
20260508223602 76 202 5.0 6.0 0.00 0.01 0.01 70 1010.2
20260508223059 77 189 3.0 5.0 0.00 0.01 0.01 70 1010.2
20260508222556 77 94 2.0 3.0 0.00 0.01 0.01 69 1010.3
20260508222053 77 214 3.0 3.0 0.00 0.01 0.01 71 1010.2
20260508221549 77 211 4.0 5.0 0.00 0.01 0.01 70 1010.2
20260508221045 78 174 5.0 9.0 0.00 0.01 0.01 69 1010.1
20260508220542 78 198 3.0 5.0 0.00 0.01 0.01 69 1010.1
20260508220038 78 196 1.0 1.0 0.00 0.01 0.01 69 1010.1
20260508215535 78 198 5.0 6.0 0.00 0.01 0.01 68 1010.0
20260508215032 77 208 3.0 3.0 0.00 0.01 0.01 70 1010.2
20260508214529 78 124 1.0 2.0 0.00 0.01 0.01 70 1010.1
20260508214025 78 199 4.0 6.0 0.00 0.01 0.01 70 1010.1
20260508213523 76 187 1.0 2.0 0.00 0.01 0.01 71 1010.1
20260508213018 77 198 5.0 8.0 0.00 0.01 0.01 71 1010.1
20260508212515 76 146 2.0 3.0 0.00 0.01 0.01 72 1010.0
20260508212012 76 178 2.0 2.0 0.00 0.01 0.01 75 1010.2
20260508211507 74 213 3.0 3.0 0.00 0.01 0.01 78 1010.4
20260508211004 73 198 2.0 3.0 0.00 0.01 0.01 79 1010.8
20260508210501 73 186 2.0 2.0 0.00 0.01 0.01 81 1011.0
20260508205957 73 188 0.0 1.0 0.00 0.01 0.01 81 1011.4
20260508205454 73 167 2.0 3.0 0.00 0.01 0.01 80 1011.6
20260508204951 73 183 1.0 1.0 0.00 0.01 0.01 79 1011.6
20260508204448 74 185 1.0 1.0 0.00 0.01 0.01 75 1011.7
20260508203943 74 191 3.0 3.0 0.00 0.01 0.01 71 1012.2
20260508203440 75 183 1.0 2.0 0.00 0.01 0.01 71 1012.1
20260508202935 75 189 1.0 2.0 0.00 0.01 0.01 71 1012.1
20260508202433 75 192 2.0 2.0 0.00 0.01 0.01 71 1012.3
20260508201930 75 166 5.0 5.0 0.00 0.01 0.01 70 1012.0
20260508201426 75 169 1.0 2.0 0.00 0.01 0.01 70 1012.2
20260508200923 75 204 1.0 2.0 0.00 0.01 0.01 69 1012.0
20260508200420 76 185 2.0 2.0 0.00 0.01 0.01 68 1012.0
20260508195915 76 183 3.0 3.0 0.00 0.01 0.01 68 1012.0
20260508195412 76 190 2.0 3.0 0.00 0.01 0.01 68 1012.1
20260508194908 77 184 3.0 5.0 0.00 0.01 0.01 67 1012.1
20260508194406 77 176 3.0 5.0 0.00 0.01 0.01 66 1012.2
20260508193903 78 172 2.0 3.0 0.00 0.01 0.01 66 1012.0
20260508193359 78 179 3.0 3.0 0.00 0.01 0.01 65 1012.2
20260508192856 80 161 3.0 5.0 0.00 0.01 0.01 63 1012.1
20260508192353 79 243 1.0 1.0 0.00 0.01 0.01 64 1011.9
20260508191850 78 167 2.0 2.0 0.00 0.01 0.01 64 1011.9
20260508191348 79 173 4.0 7.0 0.00 0.01 0.01 65 1012.2
20260508190844 78 175 3.0 3.0 0.00 0.01 0.01 65 1012.3
20260508190341 78 171 2.0 3.0 0.00 0.01 0.01 64 1012.2
20260508185837 79 271 3.0 3.0 0.00 0.01 0.01 64 1012.4
20260508185335 79 196 1.0 2.0 0.00 0.01 0.01 63 1012.6
20260508184832 79 175 0.0 1.0 0.00 0.01 0.01 64 1012.4
20260508184329 78 229 2.0 2.0 0.00 0.01 0.01 63 1012.5
20260508183826 79 214 3.0 3.0 0.00 0.01 0.01 62 1012.4
20260508183323 79 229 2.0 2.0 0.00 0.01 0.01 62 1012.6
20260508182818 78 153 5.0 7.0 0.00 0.01 0.01 64 1012.9
20260508182315 78 162 1.0 1.0 0.00 0.01 0.01 64 1012.7
20260508181811 78 200 2.0 2.0 0.00 0.01 0.01 63 1013.0
20260508181308 78 208 3.0 3.0 0.00 0.01 0.01 62 1012.9
20260508180805 78 183 1.0 2.0 0.00 0.01 0.01 62 1013.0
20260508180302 78 178 3.0 5.0 0.00 0.01 0.01 62 1013.1
20260508175758 79 237 1.0 2.0 0.00 0.01 0.01 61 1013.1
20260508175255 77 112 1.0 2.0 0.00 0.01 0.01 63 1013.4
20260508174753 78 178 3.0 3.0 0.00 0.01 0.01 63 1013.5
20260508174250 78 190 3.0 3.0 0.00 0.01 0.01 60 1013.5
20260508173746 78 184 0.0 1.0 0.00 0.01 0.01 64 1013.5
20260508173242 77 157 2.0 3.0 0.00 0.01 0.01 63 1013.4
20260508172739 77 206 1.0 1.0 0.00 0.01 0.01 64 1013.6
20260508172236 76 276 4.0 5.0 0.00 0.01 0.01 62 1013.8
20260508171732 77 213 2.0 3.0 0.00 0.01 0.01 62 1013.9
20260508171228 75 140 1.0 1.0 0.00 0.01 0.01 64 1013.9
20260508170726 74 213 3.0 3.0 0.00 0.01 0.01 65 1014.5
20260508170223 75 184 1.0 3.0 0.00 0.01 0.01 66 1014.6
20260508165720 74 207 3.0 6.0 0.00 0.01 0.01 65 1014.6
20260508165218 74 183 0.0 1.0 0.00 0.01 0.01 65 1014.9
20260508164714 74 104 4.0 5.0 0.00 0.01 0.01 65 1014.9
20260508164210 73 148 1.0 2.0 0.00 0.01 0.01 67 1014.9
20260508163709 73 201 5.0 6.0 0.00 0.01 0.01 66 1015.1
20260508163206 73 214 5.0 7.0 0.00 0.01 0.01 66 1015.2
20260508162701 73 181 0.0 1.0 0.00 0.01 0.01 66 1015.0
20260508162158 73 203 2.0 2.0 0.00 0.01 0.01 66 1015.0
20260508161655 73 209 3.0 3.0 0.00 0.01 0.01 66 1015.2
20260508161153 73 190 3.0 3.0 0.00 0.01 0.01 66 1015.2
20260508160651 72 192 2.0 3.0 0.00 0.01 0.01 67 1015.4
20260508160149 72 190 3.0 5.0 0.00 0.01 0.01 68 1015.4
20260508155645 72 169 5.0 7.0 0.00 0.01 0.01 67 1015.3
20260508155142 72 185 3.0 5.0 0.00 0.01 0.01 68 1015.8
20260508154639 71 202 2.0 3.0 0.00 0.01 0.01 68 1015.6
20260508154136 70 196 1.0 1.0 0.00 0.01 0.01 69 1015.5
20260508153632 71 158 2.0 2.0 0.00 0.01 0.01 68 1015.7
20260508153130 69 202 4.0 5.0 0.00 0.01 0.01 70 1015.7
20260508152626 68 138 3.0 3.0 0.00 0.01 0.01 71 1015.7
20260508152121 68 196 3.0 3.0 0.00 0.01 0.01 72 1016.0
20260508151619 68 201 2.0 2.0 0.00 0.01 0.01 72 1016.0
20260508151115 68 184 2.0 2.0 0.00 0.01 0.01 72 1016.0
20260508150612 68 197 2.0 3.0 0.00 0.01 0.01 72 1016.0
20260508150109 68 197 3.0 3.0 0.00 0.01 0.01 70 1015.8
20260508145605 68 170 3.0 3.0 0.00 0.01 0.01 71 1015.6
20260508145102 68 195 1.0 1.0 0.00 0.01 0.01 71 1015.6
20260508144559 69 151 1.0 1.0 0.00 0.01 0.01 71 1015.4
20260508144051 68 173 2.0 2.0 0.00 0.01 0.01 71 1015.9
20260508143548 68 110 2.0 2.0 0.00 0.01 0.01 72 1015.9
20260508143045 68 194 1.0 1.0 0.00 0.01 0.01 73 1015.9
20260508142542 68 150 3.0 3.0 0.00 0.01 0.01 73 1016.1
20260508142038 67 140 3.0 3.0 0.00 0.01 0.01 72 1016.0
20260508141534 68 113 2.0 2.0 0.00 0.01 0.01 73 1016.1
20260508141032 68 109 2.0 3.0 0.00 0.01 0.01 71 1016.2
20260508140529 68 191 4.0 5.0 0.00 0.01 0.01 72 1016.3
20260508140026 67 114 2.0 2.0 0.00 0.01 0.01 74 1016.1
20260508135521 66 148 1.0 2.0 0.00 0.01 0.01 77 1016.2
20260508135018 66 186 0.0 1.0 0.00 0.01 0.01 79 1016.0
20260508134515 65 162 2.0 3.0 0.00 0.01 0.01 80 1015.9
20260508134012 65 152 0.0 1.0 0.00 0.01 0.01 82 1016.2
20260508133509 64 157 0.0 0.0 0.00 0.01 0.01 84 1015.8
20260508133006 64 170 1.0 1.0 0.00 0.01 0.01 85 1016.0
20260508132504 64 140 2.0 3.0 0.00 0.01 0.01 86 1016.1
20260508132000 64 162 1.0 1.0 0.00 0.01 0.01 86 1016.3
20260508131455 63 180 0.0 1.0 0.00 0.01 0.01 86 1016.4
20260508130952 63 176 0.0 1.0 0.00 0.01 0.01 86 1016.4
20260508130450 63 177 0.0 1.0 0.00 0.01 0.01 86 1016.2
20260508125945 63 164 1.0 1.0 0.00 0.01 0.01 86 1016.2
20260508125441 62 189 0.0 1.0 0.00 0.01 0.01 87 1016.4
20260508124939 62 189 0.0 0.0 0.00 0.01 0.01 88 1016.2
20260508124437 62 188 0.0 0.0 0.00 0.01 0.01 89 1016.2
20260508123934 62 189 0.0 0.0 0.00 0.01 0.01 89 1016.5
20260508123433 61 189 0.0 0.0 0.00 0.01 0.01 90 1016.5
20260508122929 61 189 0.0 0.0 0.00 0.01 0.01 91 1016.6
20260508122426 61 189 0.0 0.0 0.00 0.01 0.01 91 1016.3
20260508121923 61 189 0.0 0.0 0.00 0.01 0.01 91 1016.3
20260508121421 61 189 0.0 0.0 0.00 0.01 0.01 91 1016.4
20260508120918 61 189 0.0 0.0 0.00 0.01 0.01 92 1016.2
20260508120416 61 189 0.0 0.0 0.00 0.01 0.01 92 1016.4
20260508115913 61 186 0.0 0.0 0.00 0.01 0.01 92 1016.5
20260508115412 61 183 0.0 0.0 0.00 0.01 0.01 92 1016.3
20260508114907 61 183 0.0 0.0 0.00 0.01 0.01 92 1016.2
20260508114404 61 183 0.0 0.0 0.00 0.01 0.01 93 1016.3
20260508113901 61 183 0.0 0.0 0.00 0.01 0.01 93 1016.5
20260508113359 61 183 0.0 0.0 0.00 0.01 0.01 93 1016.4
20260508112856 61 177 1.0 1.0 0.00 0.01 0.01 93 1016.5
20260508112353 61 185 1.0 2.0 0.00 0.01 0.01 93 1016.4
20260508111849 61 187 2.0 2.0 0.00 0.01 0.01 93 1016.4
20260508111346 61 196 1.0 2.0 0.00 0.01 0.01 93 1016.7
20260508110843 60 200 1.0 2.0 0.00 0.01 0.01 93 1016.7
20260508110341 60 245 0.0 0.0 0.00 0.01 0.01 94 1017.0
20260508105840 61 271 0.0 0.0 0.00 0.01 0.01 94 1017.1
20260508105337 60 275 1.0 2.0 0.00 0.01 0.01 94 1017.0
20260508104834 60 218 0.0 0.0 0.00 0.01 0.01 94 1016.6
20260508104331 60 193 0.0 0.0 0.00 0.01 0.01 94 1016.3
20260508103829 60 192 0.0 0.0 0.00 0.01 0.01 93 1015.9
20260508103325 60 192 0.0 0.0 0.00 0.01 0.01 93 1015.8
20260508102823 60 192 0.0 0.0 0.00 0.01 0.01 93 1015.6
20260508102321 60 192 0.0 0.0 0.00 0.01 0.01 93 1015.5
20260508101818 60 192 0.0 0.0 0.00 0.01 0.01 93 1015.5
20260508101315 60 192 0.0 0.0 0.00 0.01 0.01 93 1015.5
20260508100813 60 191 0.0 0.0 0.00 0.01 0.01 93 1015.5
20260508100311 60 191 0.0 0.0 0.00 0.01 0.01 94 1015.5
20260508095806 60 192 0.0 0.0 0.00 0.01 0.01 94 1015.5
20260508095306 61 192 0.0 0.0 0.00 0.01 0.01 94 1015.4
20260508094801 60 192 0.0 0.0 0.00 0.01 0.01 94 1015.5
20260508094258 60 192 0.0 0.0 0.00 0.01 0.01 93 1015.6
20260508093755 61 192 0.0 0.0 0.00 0.01 0.01 93 1015.6
20260508093253 61 192 0.0 0.0 0.00 0.01 0.01 93 1015.9
20260508092749 61 192 0.0 0.0 0.00 0.01 0.01 93 1015.9
20260508092248 61 191 0.0 0.0 0.00 0.01 0.01 93 1015.6
20260508091745 61 191 0.0 0.0 0.00 0.01 0.01 93 1015.7
20260508091242 61 190 0.0 0.0 0.00 0.01 0.01 93 1015.7
20260508090740 61 190 0.0 0.0 0.00 0.01 0.01 92 1015.6
20260508090237 61 193 0.0 1.0 0.00 0.01 0.01 92 1015.8
20260508085733 61 193 0.0 0.0 0.00 0.01 0.01 92 1015.9
20260508085230 61 192 0.0 1.0 0.00 0.01 0.01 92 1015.6
20260508084726 61 184 0.0 0.0 0.00 0.01 0.01 92 1015.7
20260508084224 61 175 0.0 0.0 0.00 0.01 0.01 92 1015.7
20260508083721 61 145 3.0 5.0 0.00 0.01 0.01 93 1015.6
20260508083219 61 163 2.0 2.0 0.00 0.01 0.01 93 1016.2
20260508082713 61 195 0.0 0.0 0.00 0.01 0.01 92 1016.5
20260508082212 61 195 0.0 0.0 0.00 0.01 0.01 91 1016.7
20260508081709 61 195 0.0 0.0 0.00 0.01 0.01 90 1016.6
20260508081205 62 195 0.0 0.0 0.07 0.01 0.01 90 1016.7
20260508080702 62 222 0.0 0.0 0.07 0.01 0.01 88 1017.1
20260508080200 62 239 0.0 0.0 0.07 0.01 0.01 86 1017.2
20260508075656 62 240 1.0 1.0 0.00 0.00 0.00 85 1017.2
20260508075154 62 239 0.0 0.0 0.00 0.00 0.00 85 1017.2
20260508074651 62 244 0.0 0.0 0.00 0.00 0.00 85 1017.3
20260508074148 62 205 1.0 1.0 0.00 0.00 0.00 85 1017.0
20260508073645 62 189 0.0 0.0 0.00 0.00 0.00 85 1016.6
20260508073143 62 189 0.0 0.0 0.00 0.00 0.00 86 1016.5
20260508072638 62 189 0.0 0.0 0.00 0.00 0.00 86 1016.6
20260508072136 61 189 0.0 0.0 0.00 0.00 0.00 86 1016.8
20260508071633 61 189 0.0 0.0 0.00 0.00 0.00 87 1016.8
20260508071131 60 189 0.0 0.0 0.00 0.00 0.00 88 1016.7
20260508070629 60 189 0.0 0.0 0.00 0.00 0.00 88 1016.8
20260508070127 60 189 0.0 0.0 0.00 0.00 0.00 88 1016.9
20260508065624 60 188 0.0 0.0 0.00 0.00 0.00 88 1016.8
20260508065122 60 188 0.0 0.0 0.00 0.00 0.00 88 1016.8
20260508064619 60 189 0.0 0.0 0.00 0.00 0.00 88 1017.2
20260508064117 60 189 0.0 0.0 0.00 0.00 0.00 88 1017.3
20260508063614 60 189 0.0 0.0 0.00 0.00 0.00 87 1017.4
20260508063112 60 189 0.0 0.0 0.00 0.00 0.00 88 1017.2
20260508062610 60 189 0.0 0.0 0.00 0.00 0.00 88 1017.4
20260508062106 60 189 0.0 0.0 0.00 0.00 0.00 88 1017.4
20260508061604 60 189 0.0 0.0 0.00 0.00 0.00 88 1017.2
20260508061101 60 189 0.0 0.0 0.00 0.00 0.00 88 1017.2
20260508060557 60 189 0.0 0.0 0.00 0.00 0.00 88 1017.3
20260508060055 60 189 0.0 0.0 0.00 0.00 0.00 88 1017.0
20260508055550 60 189 0.0 0.0 0.00 0.00 0.00 88 1017.2
20260508055047 60 189 0.0 0.0 0.00 0.00 0.00 88 1017.3
20260508054544 60 189 0.0 0.0 0.00 0.00 0.00 87 1017.2
20260508054041 60 189 0.0 0.0 0.00 0.00 0.00 87 1017.2
20260508053538 60 189 0.0 0.0 0.00 0.00 0.00 87 1017.3